TimePST,TemperatureF,Dew PointF,Humidity,Sea Level PressureIn,VisibilityMPH,Wind Direction,Wind SpeedMPH,Gust SpeedMPH,PrecipitationIn,Events,Conditions,WindDirDegrees,DateUTC
12:52 AM,-0.9,-6.0,79,30.69,-9999.0,South,5.8,-,N/A,,Unknown,170,2013-01-18 08:52:00
1:52 AM,-0.0,-4.0,83,30.69,-9999.0,SSW,3.5,-,N/A,,Unknown,200,2013-01-18 09:52:00
2:52 AM,1.9,-2.9,80,30.66,-9999.0,Calm,Calm,-,N/A,,Unknown,0,2013-01-18 10:52:00
3:52 AM,-2.0,-6.0,83,30.68,-9999.0,SSE,4.6,-,N/A,,Unknown,160,2013-01-18 11:52:00
4:52 AM,-2.0,-7.1,79,30.69,-9999.0,South,3.5,-,N/A,,Unknown,170,2013-01-18 12:52:00
5:52 AM,-0.9,-5.1,83,30.68,-9999.0,Calm,Calm,-,N/A,,Unknown,0,2013-01-18 13:52:00
6:52 AM,-2.9,-7.1,82,30.70,-9999.0,NNE,3.5,-,N/A,,Unknown,30,2013-01-18 14:52:00
7:52 AM,-2.9,-7.1,82,30.72,-9999.0,South,4.6,-,N/A,,Unknown,190,2013-01-18 15:52:00
8:52 AM,3.9,1.0,88,30.71,-9999.0,Calm,Calm,-,N/A,,Unknown,0,2013-01-18 16:52:00
9:52 AM,12.0,7.0,80,30.69,-9999.0,Calm,Calm,-,N/A,,Unknown,0,2013-01-18 17:52:00
10:52 AM,15.1,9.0,77,30.66,-9999.0,Calm,Calm,-,N/A,,Unknown,0,2013-01-18 18:52:00
11:52 AM,21.0,10.9,65,30.62,-9999.0,Calm,Calm,-,N/A,,Unknown,0,2013-01-18 19:52:00
12:52 PM,21.9,9.0,58,30.60,-9999.0,NE,3.5,-,N/A,,Unknown,40,2013-01-18 20:52:00
1:52 PM,25.0,10.0,53,30.56,-9999.0,NNE,4.6,-,N/A,,Unknown,30,2013-01-18 21:52:00
2:52 PM,24.1,10.9,57,30.56,-9999.0,NNE,4.6,-,N/A,,Unknown,30,2013-01-18 22:52:00
3:52 PM,21.9,10.9,63,30.59,-9999.0,NNE,10.4,-,N/A,,Unknown,30,2013-01-18 23:52:00
4:52 PM,19.0,10.9,71,30.59,-9999.0,SE,6.9,-,N/A,,Unknown,140,2013-01-19 00:52:00
5:52 PM,10.9,5.0,77,30.62,-9999.0,SSW,4.6,-,N/A,,Unknown,210,2013-01-19 01:52:00
6:52 PM,10.0,5.0,80,30.65,-9999.0,NE,8.1,-,N/A,,Unknown,50,2013-01-19 02:52:00
7:52 PM,6.1,1.9,83,30.66,-9999.0,SSE,5.8,-,N/A,,Unknown,150,2013-01-19 03:52:00
8:52 PM,5.0,1.0,84,30.65,-9999.0,Calm,Calm,-,N/A,,Unknown,0,2013-01-19 04:52:00
9:52 PM,7.0,3.0,84,30.61,-9999.0,South,5.8,-,N/A,,Unknown,190,2013-01-19 05:52:00
10:52 PM,6.1,1.0,80,30.61,-9999.0,Calm,Calm,-,N/A,,Unknown,0,2013-01-19 06:52:00
11:52 PM,6.1,1.9,83,30.59,-9999.0,Calm,Calm,-,N/A,,Unknown,0,2013-01-19 07:52:00